This is the latest recevied weather packets stored in our database for station/object LU4EGV-13. If no packets are shown the sender has not sent any weather packets the latest 10 day(s).
| Time | Temp. | Humidity | Pressure | Rain* | Wind** | Luminosity | Snow |
|---|---|---|---|---|---|---|---|
| 1788217463 | 15.56° C | 78% | 1014.6 hPa | 0 mm | - | - | - |
| 1788216860 | 15.56° C | 78% | 1014.4 hPa | 0 mm | - | - | - |
| 1788216251 | 15.56° C | 77% | 1014.2 hPa | 0 mm | - | - | - |
| 1788215644 | 16.11° C | 75% | 1014 hPa | 0 mm | - | - | - |
| 1788215039 | 16.11° C | 73% | 1013.7 hPa | 0 mm | - | - | - |
| 1788214432 | 16.11° C | 72% | 1013.7 hPa | 0 mm | - | - | - |
| 1788213828 | 16.67° C | 71% | 1013.5 hPa | 0 mm | - | - | - |
| 1788213221 | 16.67° C | 71% | 1013.6 hPa | 0 mm | - | - | - |
| 1788212614 | 16.67° C | 70% | 1013.4 hPa | 0 mm | - | - | - |
| 1788212008 | 17.22° C | 68% | 1013.3 hPa | 0 mm | - | - | - |
| 1788211402 | 17.78° C | 67% | 1013.1 hPa | 0 mm | - | - | - |
| 1788210795 | 18.33° C | 65% | 1012.9 hPa | 0 mm | - | - | - |
| 1788210190 | 18.33° C | 65% | 1013.2 hPa | 0 mm | - | - | - |
| 1788209593 | 17.78° C | 64% | 1012.9 hPa | 0 mm | - | - | - |
| 1788208976 | 18.33° C | 63% | 1013.1 hPa | 0 mm | - | - | - |
| 1788208371 | 18.33° C | 62% | 1013 hPa | 0 mm | - | - | - |
| 1788207764 | 18.89° C | 61% | 1013.2 hPa | 0 mm | - | - | - |
| 1788207158 | 19.44° C | 61% | 1013.1 hPa | 0 mm | - | - | - |
| 1788206553 | 19.44° C | 62% | 1012.9 hPa | 0 mm | - | - | - |
| 1788205955 | 19.44° C | 63% | 1012.8 hPa | 0 mm | - | - | - |
| 1788205341 | 18.89° C | 64% | 1012.9 hPa | 0 mm | - | - | - |
| 1788204732 | 18.33° C | 66% | 1013 hPa | 0 mm | - | - | - |
| 1788204127 | 18.33° C | 64% | 1013 hPa | 0 mm | - | - | - |
| 1788203521 | 18.33° C | 65% | 1012.9 hPa | 0 mm | - | - | - |
| 1788202915 | 18.33° C | 65% | 1012.9 hPa | 0 mm | - | - | - |
* Rain latest hour (hover to see other rain measurements)
** Current wind speed in m/s (hover to see current wind gust speed)